Time,TemperatureF,DewpointF,PressureIn,WindDirection,WindDirectionDegrees,WindSpeedMPH,WindSpeedGustMPH,Humidity,HourlyPrecipIn,Conditions,Clouds,dailyrainin,SoftwareType,DateUTC
2013-08-08 00:10:00,77.1,76.0,29.96,East,91,0.0,0.0,95,0.00,,,1.61,weatherlink.com 1.10,2013-08-08 04:10:00,
2013-08-08 00:25:00,77.2,75.0,29.95,East,89,0.0,0.0,94,0.00,,,1.61,weatherlink.com 1.10,2013-08-08 04:25:00,
2013-08-08 00:40:00,77.2,75.0,29.95,East,89,0.0,0.0,94,0.00,,,1.61,weatherlink.com 1.10,2013-08-08 04:40:00,
2013-08-08 00:55:00,77.1,75.0,29.95,East,89,0.0,0.0,94,0.00,,,1.61,weatherlink.com 1.10,2013-08-08 04:55:00,
2013-08-08 01:10:00,76.9,75.0,29.95,East,80,0.0,0.0,95,0.00,,,1.61,weatherlink.com 1.10,2013-08-08 05:10:00,
2013-08-08 01:25:00,77.0,76.0,29.95,East,79,0.0,0.0,95,0.00,,,1.61,weatherlink.com 1.10,2013-08-08 05:25:00,
2013-08-08 01:40:00,76.9,75.0,29.95,East,86,0.0,0.0,95,0.00,,,1.61,weatherlink.com 1.10,2013-08-08 05:40:00,
2013-08-08 01:55:00,77.0,75.0,29.94,East,80,0.0,0.0,94,0.00,,,1.61,weatherlink.com 1.10,2013-08-08 05:55:00,
2013-08-08 02:10:00,77.2,75.0,29.94,East,84,0.0,2.0,94,0.00,,,1.61,weatherlink.com 1.10,2013-08-08 06:10:00,
2013-08-08 02:25:00,77.3,75.0,29.94,ENE,76,0.0,2.0,93,0.00,,,1.61,weatherlink.com 1.10,2013-08-08 06:25:00,
2013-08-08 02:40:00,77.2,75.0,29.93,East,96,2.0,4.0,93,0.00,,,1.61,weatherlink.com 1.10,2013-08-08 06:40:00,
2013-08-08 02:55:00,77.1,75.0,29.93,East,85,2.0,2.0,94,0.00,,,1.61,weatherlink.com 1.10,2013-08-08 06:55:00,
2013-08-08 03:10:00,77.3,76.0,29.93,East,83,3.0,4.0,94,0.00,,,1.61,weatherlink.com 1.10,2013-08-08 07:10:00,
2013-08-08 03:25:00,77.2,75.0,29.93,ENE,64,1.0,3.0,94,0.00,,,1.61,weatherlink.com 1.10,2013-08-08 07:25:00,
2013-08-08 03:40:00,77.0,76.0,29.93,East,94,0.0,1.0,95,0.00,,,1.61,weatherlink.com 1.10,2013-08-08 07:40:00,
2013-08-08 03:55:00,76.8,75.0,29.92,East,83,0.0,0.0,95,0.00,,,1.61,weatherlink.com 1.10,2013-08-08 07:55:00,
2013-08-08 04:10:00,76.8,75.0,29.92,East,82,0.0,0.0,95,0.00,,,1.61,weatherlink.com 1.10,2013-08-08 08:10:00,
2013-08-08 04:26:00,76.7,76.0,29.92,ENE,78,0.0,0.0,96,0.00,,,1.61,weatherlink.com 1.10,2013-08-08 08:26:00,
2013-08-08 04:40:00,76.7,76.0,29.92,East,84,1.0,2.0,96,0.00,,,1.61,weatherlink.com 1.10,2013-08-08 08:40:00,
2013-08-08 04:55:00,76.8,76.0,29.92,East,82,1.0,2.0,96,0.00,,,1.61,weatherlink.com 1.10,2013-08-08 08:55:00,
2013-08-08 05:10:00,76.8,76.0,29.92,East,85,0.0,0.0,96,0.00,,,1.61,weatherlink.com 1.10,2013-08-08 09:10:00,
2013-08-08 05:25:00,76.9,76.0,29.93,East,91,1.0,3.0,96,0.00,,,1.61,weatherlink.com 1.10,2013-08-08 09:25:00,
2013-08-08 05:40:00,77.0,76.0,29.93,East,84,2.0,3.0,95,0.00,,,1.61,weatherlink.com 1.10,2013-08-08 09:40:00,
2013-08-08 05:55:00,77.0,76.0,29.93,East,93,2.0,3.0,95,0.00,,,1.61,weatherlink.com 1.10,2013-08-08 09:55:00,
2013-08-08 06:10:00,77.0,76.0,29.93,East,97,1.0,2.0,95,0.00,,,1.61,weatherlink.com 1.10,2013-08-08 10:10:00,
2013-08-08 06:25:00,77.0,76.0,29.93,East,82,1.0,3.0,95,0.00,,,1.61,weatherlink.com 1.10,2013-08-08 10:25:00,
2013-08-08 06:40:00,77.0,76.0,29.92,East,81,2.0,4.0,95,0.00,,,1.61,weatherlink.com 1.10,2013-08-08 10:40:00,
2013-08-08 06:55:00,77.2,76.0,29.92,ESE,105,2.0,4.0,95,0.00,,,1.61,weatherlink.com 1.10,2013-08-08 10:55:00,
2013-08-08 07:10:00,77.4,76.0,29.93,East,79,4.0,5.0,94,0.00,,,1.61,weatherlink.com 1.10,2013-08-08 11:10:00,
2013-08-08 07:25:00,77.9,76.0,29.93,East,91,4.0,6.0,94,0.00,,,1.61,weatherlink.com 1.10,2013-08-08 11:25:00,
2013-08-08 07:40:00,78.6,76.0,29.93,East,97,3.0,5.0,92,0.00,,,1.61,weatherlink.com 1.10,2013-08-08 11:40:00,
2013-08-08 07:55:00,79.2,76.0,29.94,East,96,3.0,5.0,91,0.00,,,1.61,weatherlink.com 1.10,2013-08-08 11:55:00,
2013-08-08 08:10:00,79.9,77.0,29.94,East,84,2.0,6.0,90,0.00,,,1.61,weatherlink.com 1.10,2013-08-08 12:10:00,
2013-08-08 08:25:00,80.6,77.0,29.95,East,87,2.0,6.0,88,0.00,,,1.61,weatherlink.com 1.10,2013-08-08 12:25:00,
2013-08-08 08:40:00,81.5,78.0,29.95,ESE,108,6.0,7.0,88,0.00,,,1.61,weatherlink.com 1.10,2013-08-08 12:40:00,
2013-08-08 08:55:00,82.2,77.0,29.95,East,85,6.0,9.0,85,0.00,,,1.61,weatherlink.com 1.10,2013-08-08 12:55:00,
2013-08-08 09:10:00,82.4,78.0,29.95,East,99,3.0,9.0,85,0.00,,,1.61,weatherlink.com 1.10,2013-08-08 13:10:00,
2013-08-08 09:25:00,82.9,78.0,29.95,ENE,60,6.0,9.0,84,0.00,,,1.61,weatherlink.com 1.10,2013-08-08 13:25:00,
2013-08-08 09:40:00,83.4,78.0,29.95,East,95,4.0,11.0,83,0.00,,,1.61,weatherlink.com 1.10,2013-08-08 13:40:00,
2013-08-08 09:55:00,83.8,77.0,29.95,East,91,5.0,10.0,81,0.00,,,1.61,weatherlink.com 1.10,2013-08-08 13:55:00,
2013-08-08 10:10:00,84.6,78.0,29.96,ESE,112,6.0,10.0,81,0.00,,,1.61,weatherlink.com 1.10,2013-08-08 14:10:00,
2013-08-08 10:25:00,84.7,78.0,29.96,ESE,102,6.0,11.0,79,0.00,,,1.61,weatherlink.com 1.10,2013-08-08 14:25:00,
2013-08-08 10:40:00,85.5,78.0,29.97,East,98,4.0,10.0,78,0.00,,,1.61,weatherlink.com 1.10,2013-08-08 14:40:00,
2013-08-08 10:55:00,85.9,78.0,29.97,SE,128,4.0,11.0,76,0.00,,,1.61,weatherlink.com 1.10,2013-08-08 14:55:00,
2013-08-08 11:10:00,86.6,77.0,29.98,East,95,5.0,10.0,74,0.00,,,1.61,weatherlink.com 1.10,2013-08-08 15:10:00,
2013-08-08 11:25:00,86.8,77.0,29.98,East,101,8.0,10.0,73,0.00,,,1.61,weatherlink.com 1.10,2013-08-08 15:25:00,
2013-08-08 11:40:00,87.4,77.0,29.98,SSE,160,5.0,10.0,71,0.00,,,1.61,weatherlink.com 1.10,2013-08-08 15:40:00,
2013-08-08 11:55:00,88.0,77.0,29.97,ESE,103,6.0,12.0,70,0.00,,,1.61,weatherlink.com 1.10,2013-08-08 15:55:00,
2013-08-08 12:10:00,88.3,77.0,29.97,East,98,6.0,11.0,70,0.00,,,1.61,weatherlink.com 1.10,2013-08-08 16:10:00,
2013-08-08 12:26:00,88.9,75.0,29.97,SE,136,5.0,11.0,64,0.00,,,1.61,weatherlink.com 1.10,2013-08-08 16:26:00,
2013-08-08 12:41:00,89.3,77.0,29.97,ENE,77,6.0,11.0,67,0.00,,,1.61,weatherlink.com 1.10,2013-08-08 16:41:00,
2013-08-08 12:56:00,89.4,75.0,29.96,ESE,108,10.0,13.0,63,0.00,,,1.61,weatherlink.com 1.10,2013-08-08 16:56:00,
2013-08-08 13:11:00,90.2,76.0,29.96,East,96,9.0,10.0,63,0.00,,,1.61,weatherlink.com 1.10,2013-08-08 17:11:00,
2013-08-08 13:26:00,90.6,75.0,29.96,East,101,4.0,11.0,61,0.00,,,0.00,weatherlink.com 1.10,2013-08-08 17:26:00,
2013-08-08 13:41:00,91.0,77.0,29.96,SSE,153,6.0,10.0,63,0.00,,,0.00,weatherlink.com 1.10,2013-08-08 17:41:00,
2013-08-08 13:56:00,91.2,75.0,29.96,East,83,3.0,9.0,60,0.00,,,0.00,weatherlink.com 1.10,2013-08-08 17:56:00,
2013-08-08 14:11:00,92.1,75.0,29.95,East,101,10.0,10.0,57,0.00,,,0.00,weatherlink.com 1.10,2013-08-08 18:11:00,
2013-08-08 14:26:00,92.4,75.0,29.95,East,97,5.0,8.0,58,0.00,,,0.00,weatherlink.com 1.10,2013-08-08 18:26:00,
2013-08-08 14:41:00,92.7,75.0,29.94,SSE,167,4.0,8.0,56,0.00,,,0.00,weatherlink.com 1.10,2013-08-08 18:41:00,
2013-08-08 14:56:00,93.2,75.0,29.93,East,89,4.0,10.0,55,0.00,,,0.00,weatherlink.com 1.10,2013-08-08 18:56:00,
2013-08-08 15:11:00,92.7,74.0,29.93,ENE,75,3.0,8.0,55,0.00,,,0.00,weatherlink.com 1.10,2013-08-08 19:11:00,
2013-08-08 15:27:00,91.1,74.0,29.93,East,99,3.0,5.0,57,0.00,,,0.00,weatherlink.com 1.10,2013-08-08 19:27:00,
2013-08-08 15:41:00,84.5,75.0,29.94,East,89,12.0,14.0,74,0.13,,,0.13,weatherlink.com 1.10,2013-08-08 19:41:00,
2013-08-08 15:56:00,78.7,74.0,29.94,East,101,0.0,5.0,85,0.30,,,0.30,weatherlink.com 1.10,2013-08-08 19:56:00,
2013-08-08 16:11:00,77.0,73.0,29.92,ESE,104,2.0,10.0,87,0.30,,,0.30,weatherlink.com 1.10,2013-08-08 20:11:00,
2013-08-08 16:26:00,78.0,73.0,29.94,West,274,2.0,5.0,85,0.30,,,0.30,weatherlink.com 1.10,2013-08-08 20:26:00,
2013-08-08 16:41:00,80.4,73.0,29.94,WNW,288,2.0,7.0,79,0.17,,,0.30,weatherlink.com 1.10,2013-08-08 20:41:00,
2013-08-08 16:56:00,84.2,76.0,29.92,North,6,1.0,5.0,76,0.00,,,0.30,weatherlink.com 1.10,2013-08-08 20:56:00,
2013-08-08 17:26:00,83.6,75.0,29.92,North,8,3.0,8.0,75,0.00,,,0.30,weatherlink.com 1.10,2013-08-08 21:26:00,
2013-08-08 17:56:00,79.4,75.0,29.94,West,267,1.0,5.0,86,0.27,,,0.57,weatherlink.com 1.10,2013-08-08 21:56:00,
2013-08-08 18:11:00,77.3,74.0,29.94,WSW,240,1.0,8.0,90,0.27,,,0.57,weatherlink.com 1.10,2013-08-08 22:11:00,
2013-08-08 18:26:00,76.9,75.0,29.95,SE,127,2.0,5.0,92,0.27,,,0.57,weatherlink.com 1.10,2013-08-08 22:26:00,
2013-08-08 18:41:00,77.2,75.0,29.97,SE,142,1.0,4.0,93,0.33,,,0.63,weatherlink.com 1.10,2013-08-08 22:41:00,
2013-08-08 18:56:00,76.9,75.0,29.94,West,259,2.0,6.0,93,0.23,,,0.80,weatherlink.com 1.10,2013-08-08 22:56:00,
2013-08-08 19:11:00,77.6,76.0,29.94,East,91,0.0,3.0,93,0.23,,,0.80,weatherlink.com 1.10,2013-08-08 23:11:00,
2013-08-08 19:26:00,77.1,75.0,29.96,NE,46,0.0,10.0,93,0.33,,,0.90,weatherlink.com 1.10,2013-08-08 23:26:00,
2013-08-08 19:41:00,76.2,74.0,29.95,WNW,295,0.0,0.0,92,0.23,,,0.91,weatherlink.com 1.10,2013-08-08 23:41:00,
2013-08-08 19:56:00,75.9,74.0,29.97,East,93,3.0,4.0,93,0.11,,,0.91,weatherlink.com 1.10,2013-08-08 23:56:00,
2013-08-08 20:11:00,76.1,74.0,29.96,East,99,0.0,0.0,94,0.11,,,0.91,weatherlink.com 1.10,2013-08-09 00:11:00,
2013-08-08 20:26:00,76.1,74.0,29.96,East,97,0.0,0.0,94,0.00,,,0.91,weatherlink.com 1.10,2013-08-09 00:26:00,
2013-08-08 20:41:00,75.9,74.0,29.97,East,98,0.0,0.0,95,0.01,,,0.92,weatherlink.com 1.10,2013-08-09 00:41:00,
2013-08-08 20:57:00,76.1,75.0,29.97,East,94,0.0,0.0,95,0.01,,,0.92,weatherlink.com 1.10,2013-08-09 00:57:00,
2013-08-08 21:12:00,76.1,75.0,29.97,East,86,0.0,0.0,95,0.01,,,0.92,weatherlink.com 1.10,2013-08-09 01:12:00,
2013-08-08 21:27:00,76.1,75.0,29.98,NNE,20,0.0,0.0,96,0.01,,,0.92,weatherlink.com 1.10,2013-08-09 01:27:00,
2013-08-08 21:42:00,76.1,75.0,29.98,NE,43,0.0,0.0,96,0.00,,,0.92,weatherlink.com 1.10,2013-08-09 01:42:00,
2013-08-08 22:12:00,75.9,75.0,30.00,NW,319,0.0,0.0,96,0.00,,,0.92,weatherlink.com 1.10,2013-08-09 02:12:00,
2013-08-08 22:27:00,75.6,74.0,30.00,West,281,0.0,0.0,96,0.00,,,0.92,weatherlink.com 1.10,2013-08-09 02:27:00,
2013-08-08 22:42:00,75.4,74.0,30.00,West,281,0.0,0.0,96,0.00,,,0.92,weatherlink.com 1.10,2013-08-09 02:42:00,
2013-08-08 23:12:00,75.1,74.0,30.00,West,281,0.0,0.0,97,0.00,,,0.92,weatherlink.com 1.10,2013-08-09 03:12:00,
2013-08-08 23:27:00,74.9,74.0,30.01,West,281,0.0,0.0,97,0.00,,,0.92,weatherlink.com 1.10,2013-08-09 03:27:00,
2013-08-08 23:42:00,75.0,74.0,30.01,NW,318,0.0,0.0,97,0.00,,,0.92,weatherlink.com 1.10,2013-08-09 03:42:00,